Koosah.INFO

KSEA Weather Observatons

This table shows observations taken by aircraft in the Seattle, WA, US area since 2019-06-19T07:55:44-0700. By default, it is sorted by time observed in ascending order. Click on a column heading to sort by that column instead. Click again on the same column heading to sort in descending order.

Show observations taken in the last:

Return to main page.

Time Observed Time Received Altitude (ft) Latitude Longitude Temperature (˚C) Wind Direction Wind speed (kn) Frequency (MHz) Source
2019-06-19T09:54:00-0700 2019-06-19T09:55:13-0700 11096 47.3121 -122.6122 -6.2 303 30 130.025 .N612AS
2019-06-19T09:54:00-0700 2019-06-19T09:55:13-0700 10400 47.3109 -122.5718 -5.2 302 27 130.025 .N612AS
2019-06-19T09:54:00-0700 2019-06-19T09:55:13-0700 9574 47.3095 -122.5342 -3.5 313 24 130.025 .N612AS
2019-06-19T09:53:00-0700 2019-06-19T09:54:52-0700 8332 47.3083 -122.497 -1.0 (missing) (missing) 130.025 .N612AS
2019-06-19T09:53:00-0700 2019-06-19T09:54:52-0700 7340 47.3069 -122.4601 -1.7 299 10 130.025 .N612AS
2019-06-19T09:53:00-0700 2019-06-19T09:54:52-0700 6845 47.3078 -122.4239 -1.7 296 8 130.025 .N612AS
2019-06-19T09:31:00-0700 2019-06-19T09:31:29-0700 35900 47.323 -122.084 -44.0 289 104 131.55 .C-FYIY
2019-06-19T08:44:00-0700 2019-06-19T08:45:10-0700 10833 47.4743 -122.6965 -6.2 298 29 130.025 .N317AS
2019-06-19T08:44:00-0700 2019-06-19T08:45:10-0700 10710 47.4521 -122.6666 -5.7 296 30 130.025 .N317AS
2019-06-19T08:44:00-0700 2019-06-19T08:45:10-0700 10652 47.4317 -122.6391 -5.7 298 30 130.025 .N317AS
2019-06-19T08:43:00-0700 2019-06-19T08:43:40-0700 8157 47.373 -122.5636 -2.2 284 14 130.025 .N317AS
2019-06-19T08:42:00-0700 2019-06-19T08:43:40-0700 7173 47.3548 -122.5382 -2.0 253 5 130.025 .N317AS
2019-06-19T08:42:00-0700 2019-06-19T08:43:40-0700 6453 47.3378 -122.5114 -1.0 272 3 130.025 .N317AS
2019-06-19T08:40:00-0700 2019-06-19T08:40:40-0700 6200 47.19 -122.13 0.0 260 17 130.025 .N585NW
2019-06-19T08:39:00-0700 2019-06-19T08:40:40-0700 4700 47.191 -122.17 3.0 301 6 130.025 .N585NW
2019-06-19T08:39:00-0700 2019-06-19T08:40:54-0700 2515 47.3678 -122.3085 4.5 188 5 130.025 .N317AS
2019-06-19T08:39:00-0700 2019-06-19T08:40:54-0700 2337 47.3742 -122.3083 4.7 180 4 130.025 .N317AS
2019-06-19T08:39:00-0700 2019-06-19T08:40:54-0700 2208 47.3804 -122.3082 5.0 182 5 130.025 .N317AS
2019-06-19T08:39:00-0700 2019-06-19T08:40:05-0700 1779 47.4005 -122.308 6.2 162 2 130.025 .N317AS
2019-06-19T08:39:00-0700 2019-06-19T08:40:05-0700 1670 47.4058 -122.308 6.5 163 5 130.025 .N317AS
2019-06-19T08:39:00-0700 2019-06-19T08:40:05-0700 1571 47.4109 -122.308 7.0 179 5 130.025 .N317AS
2019-06-19T08:39:00-0700 2019-06-19T08:39:58-0700 1417 47.4159 -122.3082 7.0 (missing) (missing) 130.025 .N317AS
2019-06-19T08:39:00-0700 2019-06-19T08:39:58-0700 1240 47.4207 -122.3082 8.0 118 5 130.025 .N317AS
2019-06-19T08:38:00-0700 2019-06-19T08:40:40-0700 3200 47.213 -122.185 4.0 165 5 130.025 .N585NW
2019-06-19T08:38:00-0700 2019-06-19T08:39:58-0700 1002 47.4254 -122.308 9.2 151 2 130.025 .N317AS
2019-06-19T08:37:00-0700 2019-06-19T08:40:40-0700 1700 47.249 -122.185 7.0 162 5 130.025 .N585NW
2019-06-19T08:37:00-0700 2019-06-19T08:40:40-0700 200 47.269 -122.184 11.0 181 8 130.025 .N585NW
2019-06-19T08:33:00-0700 2019-06-19T08:38:13-0700 5738 47.7409 -122.4555 0.7 261 11 130.025 .N323AS
2019-06-19T08:32:00-0700 2019-06-19T08:32:44-0700 25962 47.7053 -122.9461 -36.2 298 78 130.025 .N625AS
2019-06-19T08:32:00-0700 2019-06-19T08:32:44-0700 25135 47.6794 -122.9213 -34.5 296 77 130.025 .N625AS
2019-06-19T08:32:00-0700 2019-06-19T08:38:13-0700 5735 47.6835 -122.4556 1.2 270 8 130.025 .N323AS
2019-06-19T08:31:00-0700 2019-06-19T08:32:44-0700 24219 47.654 -122.897 -32.2 298 81 130.025 .N625AS
2019-06-19T08:31:00-0700 2019-06-19T08:38:13-0700 5738 47.626 -122.4556 1.5 260 10 130.025 .N323AS
2019-06-19T08:30:00-0700 2019-06-19T08:38:06-0700 5734 47.5685 -122.4555 1.0 (missing) (missing) 130.025 .N323AS
2019-06-19T08:29:00-0700 2019-06-19T08:29:38-0700 15278 47.4757 -122.6972 -13.5 303 53 130.025 .N625AS
2019-06-19T08:29:00-0700 2019-06-19T08:38:06-0700 5762 47.511 -122.4555 0.7 243 6 130.025 .N323AS
2019-06-19T08:28:00-0700 2019-06-19T08:29:38-0700 13827 47.4552 -122.6702 -11.2 296 46 130.025 .N625AS
2019-06-19T08:28:00-0700 2019-06-19T08:29:38-0700 12454 47.4343 -122.6436 -8.2 298 41 130.025 .N625AS
2019-06-19T08:28:00-0700 2019-06-19T08:29:21-0700 11300 47.4135 -122.617 -6.0 (missing) (missing) 130.025 .N625AS
2019-06-19T08:28:00-0700 2019-06-19T08:29:18-0700 6712 47.4501 -122.4553 -1.2 291 9 130.025 .N323AS
2019-06-19T08:28:00-0700 2019-06-19T08:38:06-0700 6682 47.4532 -122.4553 -0.5 289 9 130.025 .N323AS
2019-06-19T08:27:00-0700 2019-06-19T08:29:21-0700 10639 47.3939 -122.5918 -5.5 300 31 130.025 .N625AS
2019-06-19T08:27:00-0700 2019-06-19T08:29:21-0700 9453 47.3756 -122.5684 -4.0 300 26 130.025 .N625AS
2019-06-19T08:27:00-0700 2019-06-19T08:27:47-0700 9220 47.3727 -122.5648 -3.7 298 22 130.025 .N625AS
2019-06-19T08:27:00-0700 2019-06-19T08:27:47-0700 7890 47.3539 -122.5408 -1.7 293 13 130.025 .N625AS
2019-06-19T08:27:00-0700 2019-06-19T08:29:18-0700 7685 47.386 -122.4551 -3.7 312 13 130.025 .N323AS
2019-06-19T08:26:00-0700 2019-06-19T08:29:18-0700 8614 47.3169 -122.4609 -3.7 298 16 130.025 .N323AS
2019-06-19T08:26:00-0700 2019-06-19T08:27:47-0700 6622 47.3368 -122.514 -2.2 282 3 130.025 .N625AS
2019-06-19T08:24:00-0700 2019-06-19T08:29:11-0700 11067 47.1708 -122.4836 -5.2 299 37 130.025 .N323AS
2019-06-19T08:23:00-0700 2019-06-19T08:29:11-0700 12555 47.0937 -122.4977 -7.7 298 44 130.025 .N323AS
2019-06-19T08:22:00-0700 2019-06-19T08:29:11-0700 13993 47.0166 -122.5279 -10.5 292 48 130.025 .N323AS
2019-06-19T08:21:00-0700 2019-06-19T08:29:05-0700 14716 46.9387 -122.5653 -11.0 (missing) (missing) 130.025 .N323AS
2019-06-19T08:20:00-0700 2019-06-19T08:21:27-0700 20800 47.217 -121.003 -24.0 290 58 130.025 .N547US
2019-06-19T08:20:00-0700 2019-06-19T08:29:05-0700 15764 46.8626 -122.6465 -13.5 294 54 130.025 .N323AS
2019-06-19T08:19:00-0700 2019-06-19T08:21:27-0700 19700 47.223 -121.071 -22.0 295 59 130.025 .N547US
2019-06-19T08:19:00-0700 2019-06-19T08:21:27-0700 18200 47.23 -121.161 -19.0 292 59 130.025 .N547US
2019-06-19T08:19:00-0700 2019-06-19T08:29:05-0700 17531 46.7833 -122.7306 -16.5 296 54 130.025 .N323AS
2019-06-19T07:59:00-0700 2019-06-19T07:59:26-0700 33700 47.49100000000001 -122.182 -44.0 287 105 131.55 .C-FTJQ